BEIDOU IGSO-7 (43539 NORAD) Tracking and Keplerian Element Data

This shows tracking and keplerian element data for the satellite.

Feedback or suggestion? Click here.




ElementValue
Catalog43539
NameBEIDOU IGSO-7
Epoch Orbit16
Epoch Day198.96584975
Epoch Year2018
RAAN188.7606
Inclination55.0516
Eccentricity0.0021717
Argument of Perigee182.8733
Mean Anonmoly22.6635
Mean Motion1.00286252
Decay Rate-9.5E-07
L11 43539U 18057A 18198.96584975 -.00000095 00000-0 00000-0 0 9990
L22 43539 55.0516 188.7606 0021717 182.8733 22.6635 1.00286252 161

Live tracking and technical data element details for BEIDOU IGSO-7 (NORAD 43539). BEIDOU IGSO-7 can be tracked NOW for your location showing map with azimuth and elevation plus other details from your city location.

Track the satellite on the map from your city or location and see movement details for azimuth, elevation, latitude, longitude, range, height, and movement on the map or in text.







IsCatalogInMostPopularTable: catalog: 43539, numindb: 6
Update: records affected: 1



GetName: 43539 BEIDOU IGSO-7

Hit Count: updated at: Thu, 19 Jul 2018 04:02:17 GMT